When you browse on this site, cookies collect data to enhance your experience and personalize the content and advertising you see.
Visit our Privacy Policy to learn more. By continuing to use the site, you agree to this use of cookies and data.
  • In Romania
  • List of Countries
  • For 7 days
  • Water Temperature
  • Weather Map
  • Weather Widgets
  • user-avatar
    Login

    Hourly Weather Ouahigouya

    Today, 20 September, Friday

    Time Temperature Precipitation Wind Pressure Humidity
    00:00 +30°C° 0 mm 3 mps 729 mmHg 56%
    01:00 +30°C° 0 mm 3 mps 729 mmHg 62%
    02:00 +29°C° 0 mm 3 mps 729 mmHg 67%
    03:00 +28°C° 0 mm 3 mps 728 mmHg 73%
    04:00 +28°C° 0 mm 3 mps 729 mmHg 74%
    05:00 +28°C° 0 mm 3 mps 729 mmHg 75%
    06:00 +28°C° 0 mm 2 mps 730 mmHg 75%
    07:00 +28°C° 0 mm 3 mps 730 mmHg 74%
    08:00 +29°C° 0 mm 4 mps 731 mmHg 72%
    09:00 +29°C° 0 mm 4 mps 731 mmHg 70%
    10:00 +32°C° 0 mm 4 mps 731 mmHg 63%
    11:00 +33°C° 0 mm 4 mps 731 mmHg 56%
    12:00 +35°C° 0 mm 4 mps 731 mmHg 49%
    13:00 +35°C° 0 mm 4 mps 730 mmHg 48%
    14:00 +35°C° 0 mm 4 mps 729 mmHg 47%
    15:00 +35°C° 0 mm 3 mps 728 mmHg 46%
    16:00 +34°C° 0 mm 3 mps 728 mmHg 48%
    17:00 +34°C° 0 mm 3 mps 729 mmHg 51%
    18:00 +33°C° 0 mm 3 mps 729 mmHg 53%
    19:00 +32°C° 0 mm 2 mps 729 mmHg 55%
    20:00 +31°C° 0 mm 2 mps 729 mmHg 57%
    21:00 +30°C° 0 mm 1 mps 730 mmHg 59%
    22:00 +30°C° 0 mm 1 mps 730 mmHg 59%
    23:00 +30°C° 0 mm 1 mps 730 mmHg 60%

    Tomorrow, 21 September, Saturday

    Time Temperature Precipitation Wind Pressure Humidity
    00:00 +30°C° 0 mm 1 mps 730 mmHg 60%
    01:00 +29°C° 0 mm 2 mps 730 mmHg 60%
    02:00 +29°C° 0 mm 2 mps 729 mmHg 61%
    03:00 +29°C° 0 mm 2 mps 729 mmHg 62%
    04:00 +29°C° 0 mm 2 mps 729 mmHg 63%
    05:00 +29°C° 0 mm 2 mps 730 mmHg 65%
    06:00 +28°C° 0 mm 3 mps 730 mmHg 67%
    07:00 +29°C° 0 mm 3 mps 730 mmHg 65%
    08:00 +30°C° 0 mm 4 mps 730 mmHg 63%
    09:00 +32°C° 0 mm 4 mps 731 mmHg 61%
    10:00 +34°C° 0 mm 4 mps 730 mmHg 55%
    11:00 +35°C° 0 mm 3 mps 730 mmHg 49%
    12:00 +36°C° 0 mm 3 mps 730 mmHg 42%
    13:00 +37°C° 0 mm 2 mps 729 mmHg 39%
    14:00 +37°C° 0 mm 1 mps 729 mmHg 36%
    15:00 +36°C° 0 mm 0 mps 728 mmHg 33%
    16:00 +37°C° 0 mm 1 mps 728 mmHg 35%
    17:00 +37°C° 0 mm 1 mps 728 mmHg 37%
    18:00 +36°C° 0 mm 1 mps 728 mmHg 38%
    19:00 +35°C° 0.9 mm 2 mps 728 mmHg 44%
    20:00 +33°C° 0.9 mm 4 mps 729 mmHg 50%
    21:00 +30°C° 0.9 mm 5 mps 729 mmHg 56%
    22:00 +30°C° 0.7 mm 4 mps 729 mmHg 59%
    23:00 +30°C° 0.7 mm 2 mps 729 mmHg 62%

    Day after tomorrow, 22 September, Sunday

    Time Temperature Precipitation Wind Pressure Humidity
    00:00 +29°C° 0.7 mm 1 mps 729 mmHg 64%
    01:00 +29°C° 0 mm 1 mps 729 mmHg 64%
    02:00 +29°C° 0 mm 2 mps 728 mmHg 65%
    03:00 +29°C° 0 mm 2 mps 728 mmHg 65%
    04:00 +29°C° 0 mm 3 mps 728 mmHg 66%
    05:00 +29°C° 0 mm 3 mps 729 mmHg 67%
    06:00 +28°C° 0 mm 4 mps 729 mmHg 68%
    07:00 +29°C° 0 mm 4 mps 729 mmHg 65%
    08:00 +30°C° 0 mm 4 mps 729 mmHg 62%
    09:00 +33°C° 0 mm 5 mps 730 mmHg 58%
    10:00 +34°C° 0 mm 4 mps 730 mmHg 52%
    11:00 +36°C° 0 mm 4 mps 729 mmHg 45%
    12:00 +38°C° 0 mm 3 mps 729 mmHg 38%
    13:00 +38°C° 0 mm 3 mps 728 mmHg 35%
    14:00 +39°C° 0 mm 2 mps 728 mmHg 32%
    15:00 +40°C° 0 mm 1 mps 727 mmHg 29%
    16:00 +39°C° 0 mm 1 mps 727 mmHg 32%
    17:00 +37°C° 0 mm 1 mps 727 mmHg 34%
    18:00 +37°C° 0 mm 1 mps 727 mmHg 37%
    19:00 +36°C° 0.1 mm 2 mps 727 mmHg 40%
    20:00 +35°C° 0.1 mm 3 mps 727 mmHg 43%
    21:00 +34°C° 0.1 mm 4 mps 728 mmHg 45%
    22:00 +33°C° 0 mm 4 mps 728 mmHg 50%
    23:00 +32°C° 0 mm 4 mps 728 mmHg 54%

    23 September, Monday

    Time Temperature Precipitation Wind Pressure Humidity
    00:00 +32°C° 0 mm 4 mps 728 mmHg 58%
    01:00 +30°C° 0 mm 4 mps 728 mmHg 60%
    02:00 +30°C° 0 mm 4 mps 728 mmHg 61%
    03:00 +30°C° 0 mm 4 mps 727 mmHg 63%
    04:00 +29°C° 0 mm 4 mps 728 mmHg 65%
    05:00 +29°C° 0 mm 3 mps 728 mmHg 67%
    06:00 +28°C° 0 mm 3 mps 728 mmHg 69%
    07:00 +30°C° 0 mm 4 mps 729 mmHg 64%
    08:00 +32°C° 0 mm 5 mps 729 mmHg 60%
    09:00 +34°C° 0 mm 5 mps 730 mmHg 55%
    10:00 +35°C° 0 mm 5 mps 729 mmHg 49%
    11:00 +37°C° 0 mm 4 mps 729 mmHg 43%
    12:00 +39°C° 0 mm 3 mps 728 mmHg 36%
    13:00 +39°C° 0 mm 3 mps 728 mmHg 32%
    14:00 +40°C° 0 mm 2 mps 727 mmHg 29%
    15:00 +41°C° 0 mm 2 mps 727 mmHg 25%
    16:00 +40°C° 0 mm 2 mps 727 mmHg 27%
    17:00 +39°C° 0 mm 2 mps 727 mmHg 30%
    18:00 +38°C° 0 mm 2 mps 726 mmHg 32%
    19:00 +37°C° 0 mm 4 mps 727 mmHg 37%
    20:00 +35°C° 0 mm 5 mps 728 mmHg 43%
    21:00 +34°C° 0 mm 7 mps 728 mmHg 48%
    22:00 +33°C° 0 mm 6 mps 728 mmHg 49%
    23:00 +32°C° 0 mm 5 mps 729 mmHg 50%

    24 September, Tuesday

    Time Temperature Precipitation Wind Pressure Humidity
    00:00 +30°C° 0 mm 4 mps 729 mmHg 51%
    01:00 +30°C° 0 mm 4 mps 728 mmHg 51%
    02:00 +30°C° 0 mm 5 mps 728 mmHg 52%
    03:00 +30°C° 0 mm 5 mps 728 mmHg 53%
    04:00 +30°C° 0 mm 5 mps 728 mmHg 60%
    05:00 +29°C° 0 mm 4 mps 728 mmHg 67%
    06:00 +28°C° 0 mm 3 mps 729 mmHg 73%
    07:00 +30°C° 0 mm 4 mps 729 mmHg 69%
    08:00 +32°C° 0 mm 4 mps 730 mmHg 66%
    09:00 +33°C° 0 mm 5 mps 731 mmHg 62%
    10:00 +34°C° 0 mm 5 mps 731 mmHg 57%
    11:00 +36°C° 0 mm 5 mps 730 mmHg 52%
    12:00 +38°C° 0 mm 6 mps 730 mmHg 47%
    13:00 +38°C° 0 mm 6 mps 729 mmHg 47%
    14:00 +36°C° 0 mm 7 mps 729 mmHg 47%
    15:00 +36°C° 0 mm 7 mps 728 mmHg 48%
    16:00 +35°C° 0.2 mm 6 mps 728 mmHg 50%
    17:00 +34°C° 0.2 mm 5 mps 728 mmHg 52%
    18:00 +33°C° 0.2 mm 4 mps 728 mmHg 55%
    19:00 +32°C° 0 mm 4 mps 728 mmHg 56%
    20:00 +31°C° 0 mm 3 mps 729 mmHg 58%
    21:00 +30°C° 0 mm 2 mps 729 mmHg 60%
    22:00 +30°C° 0 mm 3 mps 729 mmHg 61%
    23:00 +29°C° 0 mm 3 mps 729 mmHg 62%

    25 September, Wednesday

    Time Temperature Precipitation Wind Pressure Humidity
    00:00 +29°C° 0 mm 3 mps 729 mmHg 63%
    01:00 +29°C° 0 mm 3 mps 729 mmHg 65%
    02:00 +28°C° 0 mm 3 mps 729 mmHg 66%
    03:00 +28°C° 0 mm 3 mps 728 mmHg 67%
    04:00 +27°C° 0 mm 3 mps 729 mmHg 68%
    05:00 +27°C° 0 mm 3 mps 729 mmHg 68%
    06:00 +27°C° 0 mm 4 mps 729 mmHg 68%
    07:00 +28°C° 0 mm 4 mps 729 mmHg 65%
    08:00 +30°C° 0 mm 4 mps 730 mmHg 61%
    09:00 +32°C° 0 mm 5 mps 730 mmHg 57%
    10:00 +34°C° 0 mm 4 mps 730 mmHg 51%
    11:00 +35°C° 0 mm 4 mps 729 mmHg 46%
    12:00 +37°C° 0 mm 4 mps 729 mmHg 40%
    13:00 +37°C° 0 mm 3 mps 729 mmHg 38%
    14:00 +38°C° 0 mm 3 mps 728 mmHg 36%
    15:00 +39°C° 0 mm 3 mps 728 mmHg 33%
    16:00 +38°C° 0 mm 3 mps 728 mmHg 36%
    17:00 +37°C° 0 mm 3 mps 728 mmHg 39%
    18:00 +36°C° 0 mm 4 mps 728 mmHg 42%
    19:00 +34°C° 0.4 mm 4 mps 728 mmHg 47%
    20:00 +33°C° 0.4 mm 4 mps 729 mmHg 51%
    21:00 +30°C° 0.4 mm 5 mps 730 mmHg 56%
    22:00 +30°C° 0.5 mm 4 mps 730 mmHg 56%
    23:00 +29°C° 0.5 mm 4 mps 730 mmHg 57%
    Show more